| time (UTC) | temp F | wind direction | speed MPH | gust MPH | rain 1hr in | rain 24hr in | rain mn in | humidity % | barometer mb |
| 20260905220002 | 84 | 158 | 1.0 | 5.0 | 0.00 | 0.01 | 0.00 | 85 | 1011.9 |
| 20260905215500 | 84 | 211 | 1.0 | 5.0 | 0.00 | 0.01 | 0.00 | 85 | 1012.0 |
| 20260905215000 | 84 | 218 | 0.0 | 4.0 | 0.00 | 0.01 | 0.00 | 85 | 1012.0 |
| 20260905214501 | 84 | 213 | 1.0 | 5.0 | 0.00 | 0.01 | 0.00 | 85 | 1012.0 |
| 20260905214001 | 84 | 208 | 0.0 | 5.0 | 0.00 | 0.01 | 0.00 | 86 | 1012.0 |
| 20260905213602 | 83 | 154 | 0.0 | 3.0 | 0.00 | 0.01 | 0.00 | 87 | 1012.0 |
| 20260905213111 | 83 | 128 | 0.0 | 3.0 | 0.00 | 0.01 | 0.00 | 86 | 1011.8 |
| 20260905212600 | 83 | 200 | 0.0 | 3.0 | 0.00 | 0.01 | 0.00 | 87 | 1011.9 |
| 20260905212059 | 83 | 155 | 1.0 | 7.0 | 0.00 | 0.01 | 0.00 | 88 | 1012.0 |
| 20260905211602 | 83 | 186 | 3.0 | 7.0 | 0.00 | 0.01 | 0.00 | 88 | 1012.0 |
| 20260905211059 | 82 | 126 | 0.0 | 3.0 | 0.00 | 0.01 | 0.00 | 88 | 1012.1 |
| 20260905210559 | 82 | 125 | 1.0 | 2.0 | 0.00 | 0.01 | 0.00 | 88 | 1011.9 |
| 20260905210059 | 82 | 202 | 0.0 | 2.0 | 0.00 | 0.01 | 0.00 | 88 | 1012.0 |
| 20260905205558 | 82 | 134 | 0.0 | 2.0 | 0.00 | 0.01 | 0.00 | 88 | 1012.2 |
| 20260905205100 | 82 | 134 | 1.0 | 3.0 | 0.00 | 0.01 | 0.00 | 88 | 1012.1 |
| 20260905204558 | 82 | 142 | 0.0 | 3.0 | 0.00 | 0.01 | 0.00 | 88 | 1012.1 |
| 20260905204059 | 82 | 143 | 1.0 | 6.0 | 0.00 | 0.01 | 0.00 | 88 | 1012.3 |
| 20260905203600 | 82 | 138 | 1.0 | 6.0 | 0.00 | 0.01 | 0.00 | 88 | 1012.4 |
| 20260905203057 | 83 | 145 | 1.0 | 4.0 | 0.00 | 0.01 | 0.00 | 87 | 1012.3 |
| 20260905202556 | 83 | 190 | 1.0 | 3.0 | 0.00 | 0.01 | 0.00 | 86 | 1012.2 |
| 20260905202057 | 83 | 159 | 1.0 | 3.0 | 0.00 | 0.01 | 0.00 | 86 | 1012.2 |
| 20260905201600 | 83 | 182 | 0.0 | 3.0 | 0.00 | 0.01 | 0.00 | 86 | 1012.2 |
| 20260905201056 | 83 | 157 | 0.0 | 2.0 | 0.00 | 0.01 | 0.00 | 85 | 1012.1 |
| 20260905200556 | 84 | 117 | 1.0 | 2.0 | 0.00 | 0.01 | 0.00 | 85 | 1012.1 |
| 20260905200059 | 84 | 114 | 0.0 | 2.0 | 0.00 | 0.01 | 0.00 | 84 | 1012.1 |
| 20260905195555 | 85 | 113 | 1.0 | 2.0 | 0.00 | 0.01 | 0.00 | 83 | 1012.3 |
| 20260905195055 | 85 | 111 | 0.0 | 1.0 | 0.00 | 0.01 | 0.00 | 83 | 1012.4 |
| 20260905194559 | 85 | 111 | 0.0 | 2.0 | 0.00 | 0.01 | 0.00 | 83 | 1012.5 |
| 20260905194056 | 86 | 111 | 1.0 | 2.0 | 0.00 | 0.01 | 0.00 | 81 | 1012.4 |
| 20260905193556 | 86 | 69 | 0.0 | 2.0 | 0.00 | 0.01 | 0.00 | 80 | 1012.4 |
| 20260905193055 | 86 | 69 | 0.0 | 2.0 | 0.00 | 0.01 | 0.00 | 80 | 1012.7 |
| 20260905192558 | 86 | 69 | 0.0 | 0.0 | 0.00 | 0.01 | 0.00 | 79 | 1012.8 |
| 20260905192057 | 86 | 69 | 0.0 | 0.0 | 0.00 | 0.01 | 0.00 | 80 | 1012.3 |
| 20260905191603 | 86 | 69 | 0.0 | 1.0 | 0.00 | 0.01 | 0.00 | 81 | 1012.1 |
| 20260905191054 | 86 | 69 | 0.0 | 2.0 | 0.00 | 0.01 | 0.00 | 80 | 1012.4 |
| 20260905190556 | 86 | 69 | 0.0 | 2.0 | 0.00 | 0.01 | 0.00 | 82 | 1012.7 |
| 20260905190053 | 86 | 71 | 0.0 | 2.0 | 0.00 | 0.01 | 0.00 | 82 | 1013.1 |
| 20260905185556 | 86 | 71 | 0.0 | 5.0 | 0.00 | 0.01 | 0.00 | 81 | 1013.1 |
| 20260905185055 | 86 | 71 | 1.0 | 5.0 | 0.00 | 0.01 | 0.00 | 81 | 1012.7 |
| 20260905184606 | 87 | 306 | 0.0 | 3.0 | 0.00 | 0.01 | 0.00 | 82 | 1013.0 |
| 20260905184052 | 87 | 351 | 0.0 | 3.0 | 0.00 | 0.01 | 0.00 | 80 | 1012.7 |
| 20260905183553 | 87 | 351 | 0.0 | 3.0 | 0.00 | 0.01 | 0.00 | 78 | 1012.6 |
| 20260905183053 | 88 | 328 | 1.0 | 4.0 | 0.00 | 0.01 | 0.00 | 77 | 1013.0 |
| 20260905182555 | 89 | 332 | 1.0 | 5.0 | 0.00 | 0.01 | 0.00 | 75 | 1013.1 |
| 20260905182055 | 91 | 338 | 1.0 | 12.0 | 0.00 | 0.01 | 0.00 | 74 | 1012.8 |
| 20260905181552 | 93 | 339 | 3.0 | 8.0 | 0.00 | 0.01 | 0.00 | 71 | 1012.6 |
| 20260905181051 | 94 | 336 | 1.0 | 4.0 | 0.00 | 0.01 | 0.00 | 69 | 1012.6 |
| 20260905180549 | 94 | 293 | 1.0 | 4.0 | 0.00 | 0.01 | 0.00 | 69 | 1012.6 |
| 20260905180051 | 95 | 314 | 0.0 | 5.0 | 0.00 | 0.01 | 0.00 | 68 | 1012.5 |
| 20260905175546 | 95 | 281 | 1.0 | 3.0 | 0.00 | 0.01 | 0.00 | 67 | 1012.5 |
| 20260905175045 | 94 | 18 | 0.0 | 1.0 | 0.00 | 0.01 | 0.00 | 69 | 1012.7 |
| 20260905174549 | 93 | 19 | 0.0 | 2.0 | 0.00 | 0.01 | 0.00 | 70 | 1012.8 |
| 20260905174041 | 92 | 30 | 0.0 | 4.0 | 0.00 | 0.01 | 0.00 | 72 | 1012.8 |
| 20260905173541 | 92 | 284 | 0.0 | 4.0 | 0.00 | 0.01 | 0.00 | 72 | 1013.0 |
| 20260905173039 | 91 | 323 | 1.0 | 3.0 | 0.00 | 0.01 | 0.00 | 73 | 1013.0 |
| 20260905172542 | 92 | 277 | 1.0 | 3.0 | 0.00 | 0.01 | 0.00 | 72 | 1013.1 |
| 20260905172038 | 91 | 299 | 0.0 | 2.0 | 0.00 | 0.01 | 0.00 | 76 | 1013.2 |
| 20260905171538 | 90 | 299 | 0.0 | 3.0 | 0.00 | 0.01 | 0.00 | 78 | 1013.3 |
| 20260905171035 | 90 | 290 | 0.0 | 3.0 | 0.00 | 0.01 | 0.00 | 78 | 1013.4 |
| 20260905170534 | 89 | 298 | 0.0 | 6.0 | 0.00 | 0.01 | 0.00 | 79 | 1013.5 |
| 20260905170035 | 89 | 344 | 2.0 | 6.0 | 0.00 | 0.01 | 0.00 | 78 | 1013.6 |
| 20260905165534 | 88 | 321 | 0.0 | 3.0 | 0.00 | 0.01 | 0.00 | 79 | 1013.6 |
| 20260905165034 | 88 | 344 | 0.0 | 2.0 | 0.00 | 0.01 | 0.00 | 79 | 1013.9 |
| 20260905164536 | 88 | 343 | 0.0 | 4.0 | 0.00 | 0.01 | 0.00 | 80 | 1014.1 |
| 20260905164034 | 88 | 346 | 0.0 | 4.0 | 0.00 | 0.01 | 0.00 | 78 | 1014.1 |
| 20260905163533 | 89 | 334 | 0.0 | 5.0 | 0.00 | 0.01 | 0.00 | 73 | 1014.3 |
| 20260905163035 | 90 | 302 | 2.0 | 5.0 | 0.00 | 0.01 | 0.00 | 73 | 1014.3 |
| 20260905162535 | 90 | 324 | 1.0 | 4.0 | 0.00 | 0.01 | 0.00 | 77 | 1014.1 |
| 20260905162030 | 89 | 318 | 0.0 | 4.0 | 0.00 | 0.01 | 0.00 | 77 | 1014.3 |
| 20260905161530 | 89 | 319 | 1.0 | 4.0 | 0.00 | 0.01 | 0.00 | 78 | 1014.4 |
| 20260905161029 | 89 | 274 | 1.0 | 4.0 | 0.00 | 0.01 | 0.00 | 79 | 1014.4 |
| 20260905160527 | 88 | 346 | 1.0 | 4.0 | 0.00 | 0.01 | 0.00 | 79 | 1014.5 |
| 20260905160043 | 88 | 283 | 2.0 | 7.0 | 0.00 | 0.01 | 0.00 | 79 | 1014.5 |
| 20260905155525 | 88 | 294 | 1.0 | 7.0 | 0.00 | 0.01 | 0.00 | 80 | 1014.7 |
| 20260905155023 | 87 | 340 | 0.0 | 5.0 | 0.00 | 0.01 | 0.00 | 83 | 1014.7 |
| 20260905154524 | 87 | 188 | 1.0 | 5.0 | 0.00 | 0.01 | 0.00 | 82 | 1014.7 |
| 20260905154024 | 87 | 286 | 0.0 | 3.0 | 0.00 | 0.01 | 0.00 | 83 | 1014.8 |
| 20260905153524 | 87 | 286 | 0.0 | 5.0 | 0.00 | 0.01 | 0.00 | 83 | 1014.8 |
| 20260905153024 | 87 | 306 | 1.0 | 5.0 | 0.00 | 0.01 | 0.00 | 84 | 1014.7 |
| 20260905152522 | 87 | 334 | 0.0 | 4.0 | 0.00 | 0.01 | 0.00 | 84 | 1014.8 |
| 20260905152023 | 87 | 180 | 0.0 | 4.0 | 0.00 | 0.01 | 0.00 | 86 | 1014.8 |
| 20260905151520 | 86 | 302 | 1.0 | 4.0 | 0.00 | 0.01 | 0.00 | 85 | 1014.8 |
| 20260905151022 | 86 | 323 | 1.0 | 3.0 | 0.00 | 0.01 | 0.00 | 86 | 1014.7 |
| 20260905150516 | 85 | 205 | 2.0 | 4.0 | 0.00 | 0.01 | 0.00 | 87 | 1014.9 |
| 20260905150023 | 85 | 240 | 1.0 | 5.0 | 0.00 | 0.01 | 0.00 | 87 | 1014.9 |
| 20260905145516 | 84 | 198 | 1.0 | 5.0 | 0.00 | 0.01 | 0.00 | 88 | 1015.0 |
| 20260905145013 | 84 | 197 | 1.0 | 5.0 | 0.00 | 0.01 | 0.00 | 88 | 1015.0 |
| 20260905144536 | 84 | 278 | 1.0 | 4.0 | 0.00 | 0.01 | 0.00 | 88 | 1015.0 |
| 20260905144016 | 84 | 290 | 1.0 | 4.0 | 0.00 | 0.01 | 0.00 | 90 | 1015.0 |
| 20260905143511 | 83 | 217 | 0.0 | 2.0 | 0.00 | 0.01 | 0.00 | 89 | 1015.0 |
| 20260905143018 | 83 | 261 | 0.0 | 4.0 | 0.00 | 0.01 | 0.00 | 90 | 1015.1 |
| 20260905142508 | 83 | 261 | 1.0 | 4.0 | 0.00 | 0.01 | 0.00 | 90 | 1015.1 |
| 20260905142010 | 82 | 205 | 0.0 | 3.0 | 0.00 | 0.01 | 0.00 | 90 | 1015.0 |
| 20260905141506 | 82 | 205 | 0.0 | 4.0 | 0.00 | 0.01 | 0.00 | 91 | 1014.9 |
| 20260905141007 | 82 | 219 | 0.0 | 3.0 | 0.00 | 0.01 | 0.00 | 91 | 1015.0 |
| 20260905140504 | 82 | 39 | 0.0 | 3.0 | 0.00 | 0.01 | 0.00 | 91 | 1015.0 |
| 20260905140003 | 81 | 309 | 0.0 | 3.0 | 0.00 | 0.01 | 0.00 | 91 | 1015.0 |
| 20260905135501 | 81 | 225 | 0.0 | 5.0 | 0.00 | 0.01 | 0.00 | 91 | 1015.0 |
| 20260905135100 | 81 | 199 | 1.0 | 5.0 | 0.00 | 0.01 | 0.00 | 92 | 1014.9 |
| 20260905134607 | 80 | 254 | 0.0 | 3.0 | 0.00 | 0.01 | 0.00 | 92 | 1014.8 |
| 20260905134100 | 80 | 200 | 1.0 | 3.0 | 0.00 | 0.01 | 0.00 | 92 | 1014.8 |
| 20260905133558 | 80 | 289 | 0.0 | 2.0 | 0.00 | 0.01 | 0.00 | 93 | 1014.9 |
| 20260905133059 | 80 | 227 | 0.0 | 3.0 | 0.00 | 0.01 | 0.00 | 93 | 1014.8 |
| 20260905132556 | 79 | 278 | 0.0 | 3.0 | 0.00 | 0.01 | 0.00 | 94 | 1014.9 |
| 20260905132055 | 79 | 280 | 0.0 | 2.0 | 0.00 | 0.01 | 0.00 | 94 | 1014.8 |
| 20260905131558 | 78 | 288 | 1.0 | 3.0 | 0.00 | 0.01 | 0.00 | 95 | 1014.8 |
| 20260905131055 | 78 | 246 | 1.0 | 3.0 | 0.00 | 0.01 | 0.00 | 95 | 1014.9 |
| 20260905130552 | 78 | 271 | 0.0 | 0.0 | 0.00 | 0.01 | 0.00 | 95 | 1014.9 |
| 20260905130055 | 78 | 224 | 0.0 | 0.0 | 0.00 | 0.01 | 0.00 | 95 | 1014.9 |
| 20260905125549 | 77 | 215 | 0.0 | 0.0 | 0.00 | 0.01 | 0.00 | 95 | 1014.9 |
| 20260905125048 | 77 | 215 | 0.0 | 0.0 | 0.00 | 0.01 | 0.00 | 95 | 1014.9 |
| 20260905124547 | 77 | 214 | 0.0 | 0.0 | 0.00 | 0.01 | 0.00 | 95 | 1014.9 |
| 20260905124046 | 76 | 214 | 0.0 | 0.0 | 0.00 | 0.01 | 0.00 | 95 | 1015.0 |
| 20260905123545 | 76 | 214 | 0.0 | 2.0 | 0.00 | 0.01 | 0.00 | 95 | 1014.9 |
| 20260905123044 | 76 | 214 | 0.0 | 3.0 | 0.00 | 0.01 | 0.00 | 95 | 1014.7 |
| 20260905122544 | 76 | 196 | 0.0 | 3.0 | 0.00 | 0.01 | 0.00 | 95 | 1014.6 |
| 20260905122043 | 76 | 198 | 0.0 | 0.0 | 0.00 | 0.01 | 0.00 | 95 | 1014.6 |
| 20260905121543 | 76 | 198 | 0.0 | 0.0 | 0.00 | 0.01 | 0.00 | 95 | 1014.7 |
| 20260905121043 | 76 | 198 | 0.0 | 0.0 | 0.00 | 0.01 | 0.00 | 95 | 1014.6 |
| 20260905120545 | 75 | 198 | 0.0 | 0.0 | 0.00 | 0.01 | 0.00 | 95 | 1014.3 |
| 20260905120042 | 75 | 198 | 0.0 | 0.0 | 0.00 | 0.01 | 0.00 | 95 | 1014.3 |
| 20260905115545 | 75 | 198 | 0.0 | 0.0 | 0.00 | 0.01 | 0.00 | 95 | 1014.3 |
| 20260905115043 | 75 | 198 | 0.0 | 0.0 | 0.00 | 0.01 | 0.00 | 95 | 1014.1 |
| 20260905114613 | 75 | 198 | 0.0 | 0.0 | 0.00 | 0.01 | 0.00 | 95 | 1014.1 |
| 20260905114040 | 75 | 198 | 0.0 | 0.0 | 0.00 | 0.01 | 0.00 | 95 | 1014.1 |
| 20260905113541 | 75 | 198 | 0.0 | 0.0 | 0.00 | 0.01 | 0.00 | 95 | 1014.1 |
| 20260905113040 | 75 | 198 | 0.0 | 0.0 | 0.00 | 0.01 | 0.00 | 95 | 1014.0 |
| 20260905112539 | 75 | 198 | 0.0 | 0.0 | 0.00 | 0.01 | 0.00 | 95 | 1014.0 |
| 20260905112039 | 75 | 198 | 0.0 | 0.0 | 0.00 | 0.01 | 0.00 | 95 | 1013.9 |
| 20260905111548 | 75 | 198 | 0.0 | 0.0 | 0.00 | 0.01 | 0.00 | 95 | 1013.9 |
| 20260905111040 | 75 | 198 | 0.0 | 0.0 | 0.00 | 0.01 | 0.00 | 95 | 1013.8 |
| 20260905110539 | 75 | 198 | 0.0 | 0.0 | 0.00 | 0.01 | 0.00 | 95 | 1013.6 |
| 20260905110038 | 75 | 198 | 0.0 | 0.0 | 0.00 | 0.01 | 0.00 | 95 | 1013.7 |
| 20260905105538 | 75 | 198 | 0.0 | 0.0 | 0.00 | 0.01 | 0.00 | 95 | 1013.5 |
| 20260905105038 | 75 | 198 | 0.0 | 0.0 | 0.00 | 0.01 | 0.00 | 95 | 1013.6 |
| 20260905104537 | 75 | 198 | 0.0 | 0.0 | 0.00 | 0.01 | 0.00 | 95 | 1013.5 |
| 20260905104036 | 75 | 198 | 0.0 | 0.0 | 0.00 | 0.01 | 0.00 | 95 | 1013.5 |
| 20260905103536 | 75 | 198 | 0.0 | 0.0 | 0.00 | 0.01 | 0.00 | 95 | 1013.4 |
| 20260905103036 | 75 | 198 | 0.0 | 0.0 | 0.00 | 0.01 | 0.00 | 95 | 1013.5 |
| 20260905102536 | 75 | 198 | 0.0 | 0.0 | 0.00 | 0.01 | 0.00 | 95 | 1013.5 |
| 20260905102036 | 75 | 198 | 0.0 | 0.0 | 0.00 | 0.01 | 0.00 | 95 | 1013.5 |
| 20260905101536 | 75 | 198 | 0.0 | 0.0 | 0.00 | 0.01 | 0.00 | 95 | 1013.5 |
| 20260905101035 | 75 | 198 | 0.0 | 0.0 | 0.00 | 0.01 | 0.00 | 95 | 1013.4 |
| 20260905100534 | 75 | 198 | 0.0 | 0.0 | 0.00 | 0.01 | 0.00 | 95 | 1013.5 |
| 20260905100041 | 75 | 198 | 0.0 | 0.0 | 0.00 | 0.01 | 0.00 | 95 | 1013.7 |
| 20260905095533 | 75 | 198 | 0.0 | 0.0 | 0.00 | 0.01 | 0.00 | 95 | 1013.6 |
| 20260905095036 | 75 | 198 | 0.0 | 0.0 | 0.00 | 0.01 | 0.00 | 95 | 1013.8 |
| 20260905094533 | 75 | 198 | 0.0 | 0.0 | 0.00 | 0.01 | 0.00 | 95 | 1013.7 |
| 20260905094032 | 75 | 198 | 0.0 | 0.0 | 0.00 | 0.01 | 0.00 | 95 | 1013.7 |
| 20260905093532 | 75 | 198 | 0.0 | 0.0 | 0.00 | 0.01 | 0.00 | 95 | 1013.6 |
| 20260905093032 | 75 | 198 | 0.0 | 0.0 | 0.00 | 0.01 | 0.00 | 95 | 1013.6 |
| 20260905092535 | 75 | 198 | 0.0 | 0.0 | 0.00 | 0.01 | 0.00 | 94 | 1013.4 |
| 20260905092031 | 75 | 198 | 0.0 | 0.0 | 0.00 | 0.01 | 0.00 | 94 | 1013.3 |
| 20260905091532 | 75 | 198 | 0.0 | 0.0 | 0.00 | 0.01 | 0.00 | 94 | 1013.3 |
| 20260905091032 | 75 | 198 | 0.0 | 0.0 | 0.00 | 0.01 | 0.00 | 94 | 1013.3 |
| 20260905090531 | 75 | 198 | 0.0 | 0.0 | 0.00 | 0.01 | 0.00 | 94 | 1013.4 |
| 20260905090030 | 75 | 198 | 0.0 | 0.0 | 0.00 | 0.01 | 0.00 | 94 | 1013.3 |
| 20260905085530 | 75 | 198 | 0.0 | 0.0 | 0.00 | 0.01 | 0.00 | 94 | 1013.3 |
| 20260905085031 | 75 | 198 | 0.0 | 0.0 | 0.00 | 0.01 | 0.00 | 95 | 1013.2 |
| 20260905084529 | 75 | 198 | 0.0 | 0.0 | 0.00 | 0.01 | 0.00 | 94 | 1013.3 |
| 20260905084030 | 75 | 198 | 0.0 | 0.0 | 0.00 | 0.01 | 0.00 | 94 | 1013.3 |
| 20260905083530 | 75 | 198 | 0.0 | 0.0 | 0.00 | 0.01 | 0.00 | 94 | 1013.2 |
| 20260905083029 | 75 | 198 | 0.0 | 0.0 | 0.00 | 0.01 | 0.00 | 94 | 1013.4 |
| 20260905082528 | 75 | 198 | 0.0 | 0.0 | 0.00 | 0.01 | 0.00 | 94 | 1013.3 |
| 20260905082033 | 75 | 198 | 0.0 | 0.0 | 0.00 | 0.01 | 0.00 | 94 | 1013.4 |
| 20260905081529 | 75 | 198 | 0.0 | 0.0 | 0.00 | 0.01 | 0.00 | 94 | 1013.2 |
| 20260905081028 | 75 | 198 | 0.0 | 0.0 | 0.00 | 0.01 | 0.00 | 94 | 1013.1 |
| 20260905080528 | 75 | 198 | 0.0 | 0.0 | 0.00 | 0.01 | 0.00 | 94 | 1013.1 |
| 20260905080027 | 75 | 198 | 0.0 | 0.0 | 0.00 | 0.01 | 0.00 | 94 | 1013.2 |
| 20260905075526 | 75 | 198 | 0.0 | 0.0 | 0.00 | 0.01 | 0.00 | 94 | 1013.2 |
| 20260905075026 | 75 | 198 | 0.0 | 0.0 | 0.00 | 0.01 | 0.00 | 94 | 1013.3 |
| 20260905074534 | 75 | 198 | 0.0 | 0.0 | 0.00 | 0.01 | 0.00 | 94 | 1013.4 |
| 20260905074026 | 75 | 198 | 0.0 | 0.0 | 0.00 | 0.01 | 0.00 | 94 | 1013.5 |
| 20260905073524 | 75 | 198 | 0.0 | 0.0 | 0.00 | 0.01 | 0.00 | 94 | 1013.4 |
| 20260905073033 | 75 | 198 | 0.0 | 0.0 | 0.00 | 0.01 | 0.00 | 94 | 1013.4 |
| 20260905072525 | 75 | 198 | 0.0 | 0.0 | 0.00 | 0.01 | 0.00 | 94 | 1013.5 |
| 20260905072025 | 75 | 198 | 0.0 | 0.0 | 0.00 | 0.01 | 0.00 | 94 | 1013.5 |
| 20260905071525 | 75 | 198 | 0.0 | 0.0 | 0.00 | 0.01 | 0.00 | 94 | 1013.5 |
| 20260905071023 | 75 | 198 | 0.0 | 0.0 | 0.00 | 0.01 | 0.00 | 94 | 1013.6 |
| 20260905070523 | 75 | 198 | 0.0 | 0.0 | 0.00 | 0.01 | 0.00 | 94 | 1013.7 |
| 20260905070022 | 75 | 198 | 0.0 | 0.0 | 0.00 | 0.01 | 0.00 | 94 | 1013.8 |
| 20260905065521 | 75 | 198 | 0.0 | 0.0 | 0.00 | 0.01 | 0.00 | 94 | 1013.9 |
| 20260905065027 | 75 | 198 | 0.0 | 0.0 | 0.00 | 0.01 | 0.00 | 94 | 1013.9 |
| 20260905064521 | 75 | 198 | 0.0 | 0.0 | 0.00 | 0.01 | 0.00 | 94 | 1013.9 |
| 20260905064021 | 75 | 198 | 0.0 | 0.0 | 0.00 | 0.01 | 0.00 | 94 | 1013.9 |
| 20260905063520 | 75 | 198 | 0.0 | 0.0 | 0.00 | 0.01 | 0.00 | 94 | 1013.9 |
| 20260905063020 | 75 | 198 | 0.0 | 0.0 | 0.00 | 0.01 | 0.00 | 94 | 1014.0 |
| 20260905062519 | 75 | 198 | 0.0 | 0.0 | 0.00 | 0.01 | 0.00 | 94 | 1014.0 |
| 20260905062023 | 75 | 198 | 0.0 | 0.0 | 0.00 | 0.01 | 0.00 | 94 | 1013.9 |
| 20260905061519 | 75 | 198 | 0.0 | 0.0 | 0.00 | 0.01 | 0.00 | 94 | 1014.0 |
| 20260905061019 | 75 | 198 | 0.0 | 0.0 | 0.00 | 0.01 | 0.00 | 94 | 1014.0 |
| 20260905060517 | 75 | 198 | 0.0 | 0.0 | 0.00 | 0.01 | 0.00 | 94 | 1014.1 |
| 20260905060018 | 75 | 198 | 0.0 | 0.0 | 0.00 | 0.01 | 0.00 | 94 | 1014.2 |
| 20260905055517 | 75 | 198 | 0.0 | 0.0 | 0.00 | 0.01 | 0.00 | 94 | 1014.2 |
| 20260905055017 | 75 | 198 | 0.0 | 0.0 | 0.00 | 0.01 | 0.00 | 94 | 1014.3 |
| 20260905054516 | 75 | 198 | 0.0 | 0.0 | 0.00 | 0.01 | 0.00 | 94 | 1014.4 |
| 20260905054015 | 75 | 198 | 0.0 | 0.0 | 0.00 | 0.01 | 0.00 | 94 | 1014.4 |
| 20260905053515 | 75 | 198 | 0.0 | 0.0 | 0.00 | 0.01 | 0.00 | 94 | 1014.5 |
| 20260905053015 | 75 | 198 | 0.0 | 0.0 | 0.00 | 0.01 | 0.00 | 94 | 1014.4 |
| 20260905052514 | 75 | 198 | 0.0 | 0.0 | 0.00 | 0.01 | 0.00 | 94 | 1014.4 |
| 20260905052014 | 75 | 198 | 0.0 | 0.0 | 0.00 | 0.01 | 0.00 | 94 | 1014.3 |
| 20260905051513 | 75 | 198 | 0.0 | 0.0 | 0.00 | 0.01 | 0.00 | 94 | 1014.5 |
| 20260905051014 | 75 | 198 | 0.0 | 0.0 | 0.00 | 0.01 | 0.00 | 94 | 1014.6 |
| 20260905050516 | 75 | 198 | 0.0 | 0.0 | 0.00 | 0.01 | 0.00 | 94 | 1014.5 |
| 20260905050016 | 75 | 198 | 0.0 | 0.0 | 0.00 | 0.01 | 0.00 | 94 | 1014.5 |
| 20260905045514 | 75 | 198 | 0.0 | 0.0 | 0.00 | 0.01 | 0.00 | 94 | 1014.5 |
| 20260905045012 | 75 | 198 | 0.0 | 0.0 | 0.00 | 0.01 | 0.00 | 94 | 1014.5 |
| 20260905044512 | 75 | 198 | 0.0 | 0.0 | 0.00 | 0.01 | 0.00 | 94 | 1014.6 |
| 20260905044011 | 75 | 198 | 0.0 | 3.0 | 0.00 | 0.01 | 0.00 | 94 | 1014.7 |
| 20260905043513 | 75 | 198 | 0.0 | 3.0 | 0.00 | 0.01 | 0.00 | 94 | 1014.6 |
| 20260905043010 | 75 | 200 | 0.0 | 0.0 | 0.00 | 0.01 | 0.00 | 94 | 1014.5 |
| 20260905042513 | 75 | 200 | 0.0 | 0.0 | 0.00 | 0.01 | 0.00 | 94 | 1014.5 |
| 20260905042010 | 75 | 200 | 0.0 | 0.0 | 0.00 | 0.01 | 0.00 | 94 | 1014.5 |
| 20260905041510 | 75 | 200 | 0.0 | 0.0 | 0.00 | 0.01 | 0.00 | 94 | 1014.6 |
| 20260905041008 | 75 | 200 | 0.0 | 0.0 | 0.00 | 0.01 | 0.00 | 94 | 1014.6 |
| 20260905040507 | 76 | 202 | 0.0 | 0.0 | 0.00 | 0.01 | 0.00 | 93 | 1014.5 |
| 20260905040006 | 76 | 202 | 0.0 | 0.0 | 0.00 | 0.01 | 0.00 | 93 | 1014.5 |
| 20260905035505 | 76 | 203 | 0.0 | 0.0 | 0.00 | 0.01 | 0.01 | 93 | 1014.5 |
| 20260905035005 | 76 | 205 | 0.0 | 0.0 | 0.00 | 0.01 | 0.01 | 93 | 1014.7 |
| 20260905034505 | 76 | 206 | 0.0 | 0.0 | 0.00 | 0.01 | 0.01 | 93 | 1014.7 |
| 20260905034004 | 76 | 206 | 0.0 | 0.0 | 0.00 | 0.01 | 0.01 | 93 | 1014.7 |
| 20260905033505 | 76 | 206 | 0.0 | 0.0 | 0.00 | 0.01 | 0.01 | 93 | 1014.7 |
| 20260905033013 | 76 | 206 | 0.0 | 0.0 | 0.00 | 0.01 | 0.01 | 93 | 1014.6 |
| 20260905032505 | 76 | 206 | 0.0 | 0.0 | 0.00 | 0.01 | 0.01 | 94 | 1014.7 |
| 20260905032004 | 76 | 206 | 0.0 | 0.0 | 0.00 | 0.01 | 0.01 | 94 | 1014.9 |
| 20260905031505 | 76 | 206 | 0.0 | 0.0 | 0.00 | 0.01 | 0.01 | 94 | 1015.1 |
| 20260905031004 | 76 | 206 | 0.0 | 0.0 | 0.00 | 0.01 | 0.01 | 94 | 1015.1 |
| 20260905030504 | 76 | 206 | 0.0 | 0.0 | 0.00 | 0.01 | 0.01 | 94 | 1015.2 |
| 20260905030006 | 76 | 206 | 0.0 | 0.0 | 0.00 | 0.01 | 0.01 | 94 | 1015.3 |
| 20260905025506 | 76 | 206 | 0.0 | 0.0 | 0.00 | 0.01 | 0.01 | 93 | 1015.0 |
| 20260905025003 | 76 | 206 | 0.0 | 0.0 | 0.00 | 0.01 | 0.01 | 93 | 1014.9 |
| 20260905024505 | 76 | 206 | 0.0 | 0.0 | 0.00 | 0.01 | 0.01 | 93 | 1015.2 |
| 20260905024006 | 76 | 206 | 0.0 | 0.0 | 0.00 | 0.01 | 0.01 | 93 | 1015.3 |
| 20260905023503 | 76 | 206 | 0.0 | 0.0 | 0.00 | 0.01 | 0.01 | 93 | 1015.2 |
| 20260905023014 | 76 | 206 | 0.0 | 0.0 | 0.00 | 0.01 | 0.01 | 93 | 1015.2 |
| 20260905022503 | 76 | 206 | 0.0 | 0.0 | 0.00 | 0.01 | 0.01 | 93 | 1015.2 |
| 20260905022003 | 76 | 222 | 0.0 | 0.0 | 0.00 | 0.01 | 0.01 | 93 | 1015.3 |
| 20260905021503 | 76 | 222 | 0.0 | 2.0 | 0.00 | 0.01 | 0.01 | 93 | 1015.3 |
| 20260905021002 | 76 | 219 | 0.0 | 2.0 | 0.00 | 0.01 | 0.01 | 93 | 1015.4 |
| 20260905020502 | 76 | 221 | 0.0 | 2.0 | 0.00 | 0.01 | 0.01 | 93 | 1015.4 |
| 20260905020002 | 76 | 197 | 0.0 | 3.0 | 0.00 | 0.01 | 0.01 | 93 | 1015.4 |
| 20260905015502 | 76 | 219 | 1.0 | 3.0 | 0.00 | 0.01 | 0.01 | 93 | 1015.4 |
| 20260905015002 | 76 | 165 | 0.0 | 0.0 | 0.00 | 0.01 | 0.01 | 93 | 1015.4 |
| 20260905014501 | 76 | 150 | 0.0 | 0.0 | 0.00 | 0.01 | 0.01 | 93 | 1015.4 |
| 20260905014001 | 76 | 174 | 0.0 | 0.0 | 0.00 | 0.01 | 0.01 | 93 | 1015.4 |
| 20260905013503 | 77 | 178 | 0.0 | 0.0 | 0.00 | 0.01 | 0.01 | 93 | 1015.3 |
| 20260905013003 | 77 | 184 | 0.0 | 0.0 | 0.00 | 0.01 | 0.01 | 93 | 1015.5 |
| 20260905012600 | 77 | 143 | 0.0 | 0.0 | 0.00 | 0.01 | 0.01 | 93 | 1015.3 |
| 20260905012058 | 77 | 144 | 0.0 | 3.0 | 0.00 | 0.01 | 0.01 | 93 | 1015.3 |
| 20260905011604 | 77 | 205 | 0.0 | 3.0 | 0.00 | 0.01 | 0.01 | 93 | 1015.2 |
| 20260905011102 | 77 | 130 | 0.0 | 3.0 | 0.00 | 0.01 | 0.01 | 93 | 1015.1 |
| 20260905010602 | 77 | 144 | 1.0 | 3.0 | 0.01 | 0.01 | 0.01 | 93 | 1015.0 |
| 20260905010057 | 78 | 171 | 0.0 | 0.0 | 0.01 | 0.01 | 0.01 | 93 | 1014.8 |
| 20260905005558 | 78 | 114 | 0.0 | 3.0 | 0.01 | 0.01 | 0.01 | 93 | 1014.7 |
| 20260905005057 | 78 | 118 | 0.0 | 3.0 | 0.01 | 0.01 | 0.01 | 93 | 1014.7 |
| 20260905004558 | 79 | 134 | 0.0 | 2.0 | 0.01 | 0.01 | 0.01 | 93 | 1014.7 |
| 20260905004057 | 79 | 232 | 0.0 | 0.0 | 0.01 | 0.01 | 0.01 | 93 | 1014.7 |
| 20260905003559 | 79 | 232 | 0.0 | 0.0 | 0.01 | 0.01 | 0.01 | 93 | 1014.7 |
| 20260905003057 | 79 | 232 | 0.0 | 0.0 | 0.01 | 0.01 | 0.01 | 93 | 1014.6 |
| 20260905002559 | 79 | 295 | 0.0 | 0.0 | 0.01 | 0.01 | 0.01 | 93 | 1014.7 |
| 20260905002057 | 79 | 296 | 0.0 | 0.0 | 0.01 | 0.01 | 0.01 | 93 | 1014.7 |
| 20260905001606 | 79 | 296 | 0.0 | 0.0 | 0.01 | 0.01 | 0.01 | 93 | 1014.7 |
| 20260905001056 | 79 | 296 | 0.0 | 0.0 | 0.00 | 0.00 | 0.00 | 93 | 1014.7 |
| 20260905000556 | 79 | 296 | 0.0 | 0.0 | 0.00 | 0.00 | 0.00 | 93 | 1014.6 |
| 20260905000112 | 79 | 296 | 0.0 | 0.0 | 0.00 | 0.00 | 0.00 | 93 | 1014.5 |
| 20260904235555 | 79 | 296 | 0.0 | 0.0 | 0.00 | 0.00 | 0.00 | 93 | 1014.5 |
| 20260904235054 | 79 | 296 | 0.0 | 0.0 | 0.00 | 0.00 | 0.00 | 93 | 1014.5 |
| 20260904234554 | 79 | 296 | 0.0 | 0.0 | 0.00 | 0.00 | 0.00 | 93 | 1014.5 |
| 20260904234054 | 79 | 296 | 0.0 | 0.0 | 0.00 | 0.00 | 0.00 | 93 | 1014.5 |
| 20260904233554 | 79 | 296 | 0.0 | 0.0 | 0.00 | 0.00 | 0.00 | 93 | 1014.5 |
| 20260904233056 | 79 | 296 | 0.0 | 0.0 | 0.00 | 0.00 | 0.00 | 93 | 1014.6 |
| 20260904232553 | 80 | 296 | 0.0 | 0.0 | 0.00 | 0.00 | 0.00 | 93 | 1014.5 |
| 20260904232056 | 80 | 296 | 0.0 | 0.0 | 0.00 | 0.00 | 0.00 | 92 | 1014.6 |
| 20260904231558 | 80 | 296 | 0.0 | 0.0 | 0.00 | 0.00 | 0.00 | 92 | 1014.7 |
| 20260904231053 | 80 | 296 | 0.0 | 0.0 | 0.00 | 0.00 | 0.00 | 93 | 1014.7 |
| 20260904230553 | 80 | 296 | 0.0 | 0.0 | 0.00 | 0.00 | 0.00 | 92 | 1014.6 |
| 20260904230052 | 80 | 296 | 0.0 | 0.0 | 0.00 | 0.00 | 0.00 | 92 | 1014.5 |
| 20260904225552 | 80 | 296 | 0.0 | 0.0 | 0.00 | 0.00 | 0.00 | 92 | 1014.6 |
| 20260904225055 | 80 | 296 | 0.0 | 0.0 | 0.00 | 0.00 | 0.00 | 92 | 1014.5 |
| 20260904224556 | 80 | 296 | 0.0 | 0.0 | 0.00 | 0.00 | 0.00 | 92 | 1014.4 |
| 20260904224054 | 80 | 296 | 0.0 | 0.0 | 0.00 | 0.00 | 0.00 | 92 | 1014.4 |
| 20260904223551 | 80 | 296 | 0.0 | 0.0 | 0.00 | 0.00 | 0.00 | 92 | 1014.6 |
| 20260904223055 | 80 | 296 | 0.0 | 0.0 | 0.00 | 0.00 | 0.00 | 92 | 1014.7 |
| 20260904222551 | 80 | 296 | 0.0 | 0.0 | 0.00 | 0.00 | 0.00 | 92 | 1014.7 |
| 20260904222052 | 80 | 296 | 0.0 | 0.0 | 0.00 | 0.00 | 0.00 | 92 | 1014.7 |
| 20260904221551 | 80 | 296 | 0.0 | 0.0 | 0.00 | 0.00 | 0.00 | 92 | 1014.6 |
| 20260904221055 | 80 | 296 | 0.0 | 0.0 | 0.00 | 0.00 | 0.00 | 92 | 1014.5 |
| 20260904220551 | 80 | 296 | 0.0 | 0.0 | 0.00 | 0.00 | 0.00 | 92 | 1014.7 |